This is the latest recevied weather packets stored in our database for station/object KF4ERV-4. If no packets are shown the sender has not sent any weather packets the latest 10 day(s).
| Time | Temp. | Humidity | Pressure | Rain* | Wind** | Luminosity | Snow |
|---|---|---|---|---|---|---|---|
| 1777653283 | 13.89° C | 73% | 1016 hPa | 0 mm | - | - | - |
| 1777653193 | 15° C | 73% | 1016 hPa | 0 mm | - | - | - |
| 1777652985 | 15° C | 73% | 1016 hPa | 0 mm | - | - | - |
| 1777652900 | 15° C | 73% | 1016 hPa | 0 mm | - | - | - |
| 1777652690 | 15° C | 73% | 1016 hPa | 0 mm | - | - | - |
| 1777652612 | 15.56° C | 74% | 1016 hPa | 0 mm | - | - | - |
| 1777652382 | 15.56° C | 74% | 1016 hPa | 0 mm | - | - | - |
| 1777652320 | 14.44° C | 77% | 1016 hPa | 0 mm | - | - | - |
| 1777652084 | 14.44° C | 77% | 1016 hPa | 0 mm | - | - | - |
| 1777652030 | 13.89° C | 80% | 1016 hPa | 0 mm | - | - | - |
| 1777651788 | 13.89° C | 80% | 1016 hPa | 0 mm | - | - | - |
| 1777651742 | 13.33° C | 81% | 1016 hPa | 0 mm | - | - | - |
| 1777651491 | 13.33° C | 81% | 1016 hPa | 0 mm | - | - | - |
| 1777651450 | 13.89° C | 80% | 1016 hPa | 0 mm | - | - | - |
| 1777651181 | 13.89° C | 80% | 1016 hPa | 0 mm | - | - | - |
| 1777651160 | 13.89° C | 80% | 1016 hPa | 0 mm | - | - | - |
| 1777650886 | 13.89° C | 80% | 1016 hPa | 0 mm | - | - | - |
| 1777650580 | 13.33° C | 80% | 1016 hPa | 0 mm | - | - | - |
| 1777650281 | 13.89° C | 84% | 1015.9 hPa | 0 mm | - | - | - |
| 1777649983 | 12.78° C | 88% | 1016 hPa | 0 mm | - | - | - |
| 1777649685 | 12.78° C | 90% | 1015.9 hPa | 0 mm | - | - | - |
| 1777649420 | 12.78° C | 91% | 1015.8 hPa | 0 mm | - | - | - |
| 1777649388 | 12.78° C | 91% | 1015.8 hPa | 0 mm | - | - | - |
| 1777649131 | 12.78° C | 90% | 1015.3 hPa | 0 mm | - | - | - |
| 1777649082 | 12.78° C | 90% | 1015.3 hPa | 0 mm | - | - | - |
* Rain latest hour (hover to see other rain measurements)
** Current wind speed in m/s (hover to see current wind gust speed)